When you browse on this site, cookies collect data to enhance your experience and personalize the content and advertising you see.
Visit our Privacy Policy to learn more. By continuing to use the site, you agree to this use of cookies and data.
  • In Switzerland
  • List of Countries
  • For 7 days
  • Water Temperature
  • Satellite Maps
  • Weather Map
  • Weather Widgets
  • user-avatar
    Login

    Hourly Weather Zataje

    Today, 23 July, Tuesday

    Time Temperature Precipitation Wind Pressure Humidity
    00:00 +20°C° 0.6 mm 1 mps 751 mmHg 82%
    01:00 +19°C° 0 mm 1 mps 751 mmHg 90%
    02:00 +19°C° 0.3 mm 1 mps 751 mmHg 91%
    03:00 +18°C° 0.3 mm 2 mps 751 mmHg 91%
    04:00 +17°C° 0.3 mm 2 mps 751 mmHg 92%
    05:00 +17°C° 0.1 mm 3 mps 751 mmHg 92%
    06:00 +17°C° 0.1 mm 3 mps 751 mmHg 91%
    07:00 +17°C° 0.1 mm 3 mps 751 mmHg 91%
    08:00 +18°C° 0 mm 3 mps 751 mmHg 89%
    09:00 +18°C° 0 mm 3 mps 751 mmHg 87%
    10:00 +19°C° 0 mm 3 mps 751 mmHg 85%
    11:00 +19°C° 0 mm 2 mps 751 mmHg 85%
    12:00 +19°C° 0 mm 2 mps 751 mmHg 85%
    13:00 +20°C° 0 mm 2 mps 751 mmHg 85%
    14:00 +20°C° 0 mm 2 mps 751 mmHg 82%
    15:00 +21°C° 0 mm 2 mps 751 mmHg 80%
    16:00 +23°C° 0 mm 2 mps 751 mmHg 78%
    17:00 +22°C° 0 mm 1 mps 750 mmHg 80%
    18:00 +22°C° 0 mm 1 mps 750 mmHg 82%
    19:00 +20°C° 0 mm 0 mps 750 mmHg 84%
    20:00 +20°C° 0 mm 0 mps 750 mmHg 85%
    21:00 +19°C° 0 mm 0 mps 750 mmHg 87%
    22:00 +19°C° 0 mm 0 mps 750 mmHg 88%
    23:00 +21°C° 0 mm 1 mps 750 mmHg 89%

    Tomorrow, 24 July, Wednesday

    Time Temperature Precipitation Wind Pressure Humidity
    00:00 +20°C° 0 mm 1 mps 750 mmHg 90%
    01:00 +20°C° 0 mm 1 mps 750 mmHg 91%
    02:00 +19°C° 0 mm 2 mps 750 mmHg 92%
    03:00 +18°C° 0 mm 2 mps 749 mmHg 93%
    04:00 +18°C° 0 mm 2 mps 749 mmHg 95%
    05:00 +19°C° 0 mm 2 mps 749 mmHg 90%
    06:00 +20°C° 0 mm 2 mps 749 mmHg 85%
    07:00 +21°C° 0 mm 3 mps 749 mmHg 80%
    08:00 +22°C° 0 mm 3 mps 749 mmHg 76%
    09:00 +24°C° 0 mm 3 mps 750 mmHg 71%
    10:00 +25°C° 0 mm 3 mps 750 mmHg 66%
    11:00 +26°C° 0 mm 3 mps 750 mmHg 63%
    12:00 +27°C° 0 mm 3 mps 749 mmHg 60%
    13:00 +28°C° 0 mm 3 mps 749 mmHg 57%
    14:00 +28°C° 0 mm 3 mps 749 mmHg 57%
    15:00 +28°C° 0 mm 3 mps 749 mmHg 56%
    16:00 +28°C° 0 mm 3 mps 749 mmHg 56%
    17:00 +27°C° 0 mm 3 mps 749 mmHg 60%
    18:00 +26°C° 0 mm 2 mps 749 mmHg 65%
    19:00 +25°C° 0 mm 1 mps 749 mmHg 70%
    20:00 +24°C° 0 mm 1 mps 749 mmHg 74%
    21:00 +23°C° 0 mm 1 mps 749 mmHg 77%
    22:00 +22°C° 0 mm 1 mps 750 mmHg 80%
    23:00 +22°C° 0 mm 1 mps 750 mmHg 82%

    Day after tomorrow, 25 July, Thursday

    Time Temperature Precipitation Wind Pressure Humidity
    00:00 +21°C° 0 mm 1 mps 750 mmHg 84%
    01:00 +21°C° 0 mm 1 mps 750 mmHg 85%
    02:00 +21°C° 0 mm 1 mps 750 mmHg 86%
    03:00 +20°C° 0 mm 1 mps 750 mmHg 88%
    04:00 +20°C° 0 mm 1 mps 750 mmHg 89%
    05:00 +22°C° 0 mm 1 mps 750 mmHg 84%
    06:00 +23°C° 0 mm 2 mps 750 mmHg 79%
    07:00 +24°C° 0 mm 2 mps 750 mmHg 74%
    08:00 +26°C° 0.1 mm 2 mps 750 mmHg 68%
    09:00 +27°C° 0.1 mm 2 mps 750 mmHg 63%
    10:00 +28°C° 0.1 mm 3 mps 750 mmHg 57%
    11:00 +29°C° 0 mm 3 mps 750 mmHg 53%
    12:00 +30°C° 0 mm 3 mps 749 mmHg 48%
    13:00 +30°C° 0 mm 3 mps 749 mmHg 44%
    14:00 +30°C° 0 mm 4 mps 749 mmHg 45%
    15:00 +30°C° 0 mm 4 mps 749 mmHg 46%
    16:00 +30°C° 0 mm 4 mps 748 mmHg 47%
    17:00 +28°C° 0 mm 4 mps 748 mmHg 54%
    18:00 +27°C° 0 mm 3 mps 748 mmHg 60%
    19:00 +26°C° 0 mm 3 mps 748 mmHg 67%
    20:00 +24°C° 0 mm 3 mps 748 mmHg 67%
    21:00 +22°C° 0 mm 3 mps 749 mmHg 68%
    22:00 +21°C° 0 mm 3 mps 749 mmHg 69%
    23:00 +20°C° 0 mm 3 mps 749 mmHg 73%

    26 July, Friday

    Time Temperature Precipitation Wind Pressure Humidity
    00:00 +19°C° 0 mm 3 mps 749 mmHg 77%
    01:00 +18°C° 0 mm 2 mps 749 mmHg 81%
    02:00 +18°C° 0 mm 2 mps 749 mmHg 83%
    03:00 +17°C° 0 mm 2 mps 748 mmHg 86%
    04:00 +16°C° 0 mm 2 mps 748 mmHg 88%
    05:00 +18°C° 0 mm 2 mps 748 mmHg 83%
    06:00 +19°C° 0 mm 3 mps 748 mmHg 78%
    07:00 +20°C° 0 mm 3 mps 748 mmHg 74%
    08:00 +21°C° 0 mm 3 mps 748 mmHg 67%
    09:00 +24°C° 0 mm 3 mps 748 mmHg 60%
    10:00 +25°C° 0 mm 3 mps 748 mmHg 54%
    11:00 +26°C° 0 mm 3 mps 747 mmHg 51%
    12:00 +27°C° 0 mm 3 mps 747 mmHg 49%
    13:00 +27°C° 0 mm 3 mps 747 mmHg 47%
    14:00 +27°C° 0 mm 4 mps 746 mmHg 48%
    15:00 +27°C° 0 mm 4 mps 746 mmHg 49%
    16:00 +27°C° 0 mm 5 mps 746 mmHg 50%
    17:00 +26°C° 0 mm 4 mps 746 mmHg 53%
    18:00 +25°C° 0 mm 4 mps 746 mmHg 57%
    19:00 +24°C° 0 mm 3 mps 746 mmHg 60%
    20:00 +22°C° 0 mm 3 mps 746 mmHg 65%
    21:00 +20°C° 0 mm 3 mps 746 mmHg 69%
    22:00 +19°C° 0 mm 3 mps 746 mmHg 74%
    23:00 +19°C° 0 mm 3 mps 746 mmHg 78%

    27 July, Saturday

    Time Temperature Precipitation Wind Pressure Humidity
    00:00 +18°C° 0 mm 3 mps 746 mmHg 81%
    01:00 +17°C° 0 mm 2 mps 745 mmHg 85%
    02:00 +17°C° 0 mm 2 mps 745 mmHg 87%
    03:00 +17°C° 0 mm 2 mps 745 mmHg 90%
    04:00 +16°C° 0 mm 2 mps 745 mmHg 93%
    05:00 +18°C° 0 mm 3 mps 745 mmHg 88%
    06:00 +19°C° 0 mm 3 mps 745 mmHg 82%
    07:00 +20°C° 0 mm 3 mps 745 mmHg 77%
    08:00 +22°C° 0 mm 4 mps 745 mmHg 71%
    09:00 +23°C° 0 mm 4 mps 745 mmHg 66%
    10:00 +25°C° 0 mm 4 mps 745 mmHg 60%
    11:00 +26°C° 0 mm 4 mps 745 mmHg 55%
    12:00 +27°C° 0 mm 4 mps 744 mmHg 51%
    13:00 +28°C° 0 mm 4 mps 744 mmHg 46%
    14:00 +28°C° 0 mm 4 mps 744 mmHg 47%
    15:00 +28°C° 0 mm 5 mps 744 mmHg 48%
    16:00 +28°C° 0 mm 5 mps 743 mmHg 49%
    17:00 +27°C° 0 mm 4 mps 743 mmHg 54%
    18:00 +26°C° 0 mm 4 mps 743 mmHg 60%
    19:00 +25°C° 0 mm 3 mps 743 mmHg 65%
    20:00 +24°C° 0 mm 3 mps 743 mmHg 71%
    21:00 +21°C° 0 mm 3 mps 743 mmHg 76%
    22:00 +20°C° 0 mm 3 mps 743 mmHg 81%
    23:00 +20°C° 0 mm 3 mps 743 mmHg 85%

    28 July, Sunday

    Time Temperature Precipitation Wind Pressure Humidity
    00:00 +19°C° 0 mm 3 mps 743 mmHg 88%
    01:00 +19°C° 0 mm 2 mps 743 mmHg 92%
    02:00 +19°C° 0 mm 3 mps 743 mmHg 93%
    03:00 +18°C° 0 mm 3 mps 743 mmHg 94%
    04:00 +18°C° 0 mm 3 mps 743 mmHg 95%
    05:00 +19°C° 0 mm 4 mps 743 mmHg 89%
    06:00 +21°C° 0 mm 4 mps 743 mmHg 83%
    07:00 +22°C° 0 mm 5 mps 743 mmHg 77%
    08:00 +25°C° 0 mm 5 mps 743 mmHg 70%
    09:00 +26°C° 0 mm 6 mps 743 mmHg 64%
    10:00 +27°C° 0 mm 6 mps 744 mmHg 57%
    11:00 +28°C° 0 mm 6 mps 743 mmHg 54%
    12:00 +29°C° 0 mm 6 mps 743 mmHg 52%
    13:00 +29°C° 0 mm 6 mps 743 mmHg 50%
    14:00 +29°C° 0 mm 6 mps 743 mmHg 49%
    15:00 +29°C° 0 mm 5 mps 743 mmHg 49%
    16:00 +29°C° 0 mm 5 mps 743 mmHg 49%
    17:00 +28°C° 0 mm 4 mps 743 mmHg 53%
    18:00 +27°C° 0 mm 4 mps 743 mmHg 57%
    19:00 +27°C° 0 mm 3 mps 743 mmHg 61%
    20:00 +25°C° 0 mm 3 mps 744 mmHg 65%
    21:00 +24°C° 0 mm 3 mps 744 mmHg 68%
    22:00 +22°C° 0 mm 3 mps 744 mmHg 72%
    23:00 +22°C° 0 mm 3 mps 744 mmHg 76%
    Show more